EW0844 Weather Reports


time (UTC)temp
C
wind
direction
speed
KPH
gust
KPH
rain 1hr
cm
rain 24hr
cm
rain mn
cm
humidity
%
barometer
mb
20260506001912 12 217 3.2 4.8 0.00 0.00 0.00 79 1008.2
20260506000413 12 177 1.6 3.2 0.00 0.00 0.00 79 1008.2
20260505234912 12 222 1.6 3.2 0.00 0.00 0.00 79 1008.1
20260505233414 12 359 1.6 4.8 0.00 0.00 0.00 78 1008.3
20260505231914 12 249 3.2 9.7 0.00 0.00 0.00 77 1008.5
20260505230413 13 178 3.2 12.9 0.00 0.00 0.00 75 1008.4
20260505224913 13 251 4.8 11.3 0.00 0.00 0.00 74 1008.5
20260505223414 13 257 8.0 16.1 0.00 0.00 0.00 73 1008.7
20260505221914 14 300 9.7 17.7 0.00 0.00 0.00 72 1008.7
20260505214913 14 323 9.7 17.7 0.00 0.00 0.00 73 1008.4
20260505211913 14 177 4.8 11.3 0.00 0.00 0.00 73 1008.0
20260505210413 14 268 3.2 12.9 0.00 0.00 0.00 74 1007.9
20260505204913 14 240 3.2 8.0 0.00 0.00 0.00 73 1007.5
20260505203413 14 116 3.2 9.7 0.00 0.00 0.00 72 1007.2
20260505201912 14 215 4.8 6.4 0.00 0.00 0.00 72 1006.8
20260505200413 14 249 3.2 6.4 0.00 0.00 0.00 72 1006.6
20260505194912 14 229 1.6 4.8 0.00 0.00 0.00 73 1006.4
20260505193412 15 213 1.6 3.2 0.00 0.00 0.00 72 1006.2
20260505191912 15 278 1.6 6.4 0.00 0.00 0.00 71 1006.0
20260505190414 15 256 3.2 6.4 0.00 0.00 0.00 70 1005.6
20260505183413 15 285 3.2 6.4 0.00 0.00 0.00 68 1004.9
20260505181913 16 316 4.8 6.4 0.00 0.00 0.00 67 1004.6
20260505180413 16 19 3.2 6.4 0.00 0.00 0.00 65 1004.5
20260505174914 17 1 3.2 6.4 0.00 0.00 0.00 62 1004.5
20260505173414 17 359 4.8 8.0 0.00 0.00 0.00 61 1004.5
20260505171915 17 313 3.2 8.0 0.00 0.00 0.00 60 1004.4
20260505170414 17 20 1.6 4.8 0.00 0.00 0.00 59 1004.1
20260505164913 18 359 4.8 8.0 0.00 0.00 0.00 58 1004.4
20260505161914 18 220 4.8 9.7 0.00 0.00 0.00 56 1004.7
20260505160413 19 211 6.4 16.1 0.00 0.00 0.00 51 1004.8
20260505151913 21 268 8.0 16.1 0.00 0.00 0.00 40 1004.1
20260505140412 23 254 3.2 6.4 0.00 0.00 0.00 34 1004.0
20260505123413 23 98 3.2 14.5 0.00 0.00 0.00 34 1004.3
20260505121914 23 64 12.9 22.5 0.00 0.00 0.00 35 1004.5
20260505120414 23 127 8.0 16.1 0.00 0.00 0.00 36 1004.6
20260505114913 23 359 4.8 11.3 0.00 0.00 0.00 36 1004.6
20260505113413 23 66 6.4 14.5 0.00 0.00 0.00 36 1004.9
20260505111913 23 181 8.0 12.9 0.00 0.00 0.00 35 1005.1
20260505110413 23 57 3.2 6.4 0.00 0.00 0.00 35 1005.4
20260505101915 22 76 6.4 9.7 0.00 0.00 0.00 35 1006.1
20260505100413 22 78 8.0 12.9 0.00 0.00 0.00 35 1006.3
20260505094913 21 62 1.6 6.4 0.00 0.00 0.00 39 1006.5
20260505093413 21 111 4.8 8.0 0.00 0.00 0.00 39 1006.7
20260505091914 20 71 3.2 8.0 0.00 0.00 0.00 43 1006.8
20260505090414 20 243 6.4 9.7 0.00 0.00 0.00 46 1007.1
20260505084913 20 283 1.6 4.8 0.00 0.00 0.00 48 1007.0
20260505081913 20 35 1.6 6.4 0.00 0.00 0.00 50 1007.1
20260505074912 20 40 4.8 11.3 0.00 0.00 0.00 51 1007.2
20260505073414 18 313 1.6 6.4 0.00 0.00 0.00 53 1007.4
20260505071915 18 27 1.6 4.8 0.00 0.00 0.00 53 1007.3
20260505070414 18 359 3.2 6.4 0.00 0.00 0.00 53 1007.5
20260505063414 17 177 3.2 6.4 0.00 0.00 0.00 54 1007.6
20260505060413 16 275 3.2 6.4 0.00 0.00 0.00 58 1007.7
20260505054915 15 329 1.6 3.2 0.00 0.00 0.00 64 1007.7
20260505053415 15 116 3.2 4.8 0.00 0.00 0.00 65 1007.8
20260505051913 12 1 1.6 3.2 0.00 0.00 0.00 71 1007.9
20260505050413 11 71 1.6 3.2 0.00 0.00 0.00 76 1007.8
20260505040413 10 268 0.0 3.2 0.00 0.00 0.00 77 1007.9
20260505034913 11 116 1.6 3.2 0.00 0.00 0.00 76 1007.8
20260505033413 11 88 1.6 3.2 0.00 0.00 0.00 76 1007.9
20260505031912 11 45 1.6 3.2 0.00 0.00 0.00 77 1008.0
20260505030413 11 88 1.6 3.2 0.00 0.00 0.00 76 1008.1
20260505023413 12 62 1.6 3.2 0.00 0.00 0.00 75 1008.2
20260505021912 12 88 0.0 1.6 0.00 0.00 0.00 74 1008.4
20260505020414 12 45 0.0 3.2 0.00 0.00 0.00 73 1008.5
20260505014914 13 108 1.6 3.2 0.00 0.00 0.00 72 1008.5
20260505013414 13 123 1.6 3.2 0.00 0.00 0.00 72 1008.6
20260505011913 13 62 1.6 3.2 0.00 0.00 0.00 71 1008.6
20260505010413 13 123 1.6 1.6 0.00 0.00 0.00 70 1008.8
20260505004916 14 268 0.0 1.6 0.00 0.00 0.00 70 1008.8
20260505003413 14 177 1.6 3.2 0.00 0.00 0.00 69 1009.1